Tracking 18987 objects as of 25-Feb-2018
HD Live streaming from Space Station
objects crossing your sky now

COSMOS 1666

Track COSMOS 1666 now!
10-day predictions
COSMOS 1666 is classified as:


NORAD ID: 15889
Int'l Code: 1985-058A
Perigee: 508.3 km
Apogee: 529.9 km
Inclination: 82.5 °
Period: 94.9 minutes
Semi major axis: 6890 km
RCS: 8.3822 m2 (large)
Launch date: July 8, 1985
Source: Commonwealth of Independent States (former USSR) (CIS)
Launch site: PLESETSK MISSILE AND SPACE COMPLEX (PKMTR)
aabbcc
Your satellite tracking list
Your tracking list is empty




NASA's NSSDC Master Catalog

Two Line Element Set (TLE):
1 15889U 85058A   18055.62448426 +.00000727 +00000-0 +34090-4 0  9998
2 15889 082.4870 105.0364 0015644 262.5390 211.4851 15.17984424780167
Source of the keplerian elements: AFSPC